{"data":{"norad_id":45414,"epoch":"2026-05-25T03:54:42.094080Z","epoch_age_seconds":64980,"freshness":"FRESH","line1":"1 45414U 20019BG  26145.16298720  .00045153  00000+0  42574-3 0  9995","line2":"2 45414  53.0604 110.2324 0006820  14.1154 346.0051 15.66602872341980","mean_motion":15.66602872,"eccentricity":0.000682,"inclination_deg":53.0604,"raan_deg":110.2324,"arg_perigee_deg":14.1154,"mean_anomaly_deg":346.0051,"bstar":0.00042574,"rev_number":34198,"period_min":91.918636543901,"perigee_km":364.03155681297,"apogee_km":373.23415089362,"semimajor_km":6746.7698538533,"source":"CELESTRAK","updated_at":"2026-05-25T13:38:16.419819Z"}}